Regional Weather Roundup
Issued by NWS

Home | Current Version | Previous Version | Text Only | Print | Product List | Glossary On
Versions: 1 2 3 4 5 6 7 8 9 10 11 12 13 14 15 16 17 18 19 20 21 22 23 24 25 26 27 28 29 30 31 32 33 34 35 36 37 38 39 40 41 42 43 44 45 46 47 48 49 50
000
ASUS45 KPSR 252310
RWRAZ

ARIZONA REGIONAL HOURLY WEATHER ROUNDUP
NATIONAL WEATHER SERVICE PHOENIX AZ
400 PM MST FRI JUL 25 2014

NOTE: FAIR INDICATES FEW OR NO CLOUDS BELOW 12,000 FEET WITH NO
SIGNIFICANT WEATHER AND/OR OBSTRUCTIONS TO VISIBILITY.

AZZ001>003-036-260000-
NORTHWEST ARIZONA

CITY           SKY/WX    TMP DP  RH WIND       PRES   REMARKS
BULLHEAD CITY  SUNNY    109  57  18 SE17      29.73F HX 109
KINGMAN        PTSUNNY   97  57  26 E15       29.99F
$$

AZZ004>008-015-016-018-260000-
NORTH CENTRAL ARIZONA

CITY           SKY/WX    TMP DP  RH WIND       PRES   REMARKS
GRAND CANYON   CLOUDY    80  50  34 W17G25    30.27F
WILLIAMS       PTSUNNY   82  43  24 W9        30.33F
PRESCOTT       PTSUNNY   76  54  46 W14G25    30.14F THUNDER
FLAGSTAFF      PTSUNNY   83  43  24 W9G20     30.27F
PAYSON         PTSUNNY   90  50  25 CALM      30.13F
PAGE           MOSUNNY   96  45  17 N9        30.03F
$$

AZZ009>014-017-260000-
NORTHEAST ARIZONA

CITY           SKY/WX    TMP DP  RH WIND       PRES   REMARKS
WINSLOW        MOSUNNY   97  43  15 N9        30.06F
SAINT JOHNS    MOSUNNY   91  41  17 W13       30.12F
WINDOW ROCK    PTSUNNY   90  36  14 NW3       30.22F
SHOW LOW       PTSUNNY   86  37  17 E5        30.22F
$$

AZZ023-260000-
GREATER PHOENIX AREA

CITY           SKY/WX    TMP DP  RH WIND       PRES   REMARKS
PHOENIX        PTSUNNY  107  59  20 NW12      29.76F HX 108
BUCKEYE          N/A    106  59  21 SW15      29.78F HX 106
GLENDALE       PTSUNNY  108  61  21 S13G20    29.78F HX 109
LUKE AFB       NOT AVBL
DEER VALLEY    SUNNY    105  59  22 SW12      29.79F HX 105
SCOTTSDALE     SUNNY    105  60  22 W8G20     29.81F HX 106
MESA-FALCON    PTSUNNY  106  61  23 W9        29.79F HX 107
MESA-GATEWAY   MOSUNNY  106  55  18 NW9       29.82F HX 105
CHANDLER       PTSUNNY  106  61  23 W12G17    29.78F HX 107
$$

AZZ027-028-260000-
SOUTHWEST MARICOPA COUNTY AND PINAL COUNTY

CITY           SKY/WX    TMP DP  RH WIND       PRES   REMARKS
CASA GRANDE    CLOUDY   102  59  24 CALM      29.82F HX 102
GILA BEND      MOCLDY   108  59  20 W18G24    29.78F HX 108
$$

AZZ503-504-507>509-260000-
SOUTHEAST ARIZONA

CITY           SKY/WX    TMP DP  RH WIND       PRES   REMARKS
TUCSON         CLOUDY    83  62  49 SW15      29.99F
DAVIS-MONTHAN  CLOUDY    81  63  54 SW12      29.99R
RYAN FIELD       N/A     79  64  61 SW17G32   30.03R
NOGALES        CLOUDY    75  60  59 N5        30.10F
SIERRA VISTA   PTSUNNY   82  57  42 W21       30.11F
DOUGLAS        LGT RAIN  78  62  57 W24G31    30.03F
SAFFORD        SUNNY    104  40  11 S10       29.89F
$$

AZZ020-021-025-026-031-260000-
SOUTHWEST ARIZONA

CITY           SKY/WX    TMP DP  RH WIND       PRES   REMARKS
YUMA           MOSUNNY  110  59  19 S14G23    29.73F HX 111
$$

CAZ031-033-041-043-047-048-061-260000-
SOUTHERN CALIFORNIA

CITY           SKY/WX    TMP DP  RH WIND       PRES   REMARKS
DOWNTOWN L.A.  MOSUNNY   82  64  54 VRB5      29.88F
L.A. AIRPORT   PTSUNNY   75  64  68 W9        29.89F
SAN DIEGO      PTSUNNY   75  64  68 SW10      29.91F
BURBANK        PTSUNNY   85  60  42 S10       29.88F
ONTARIO        PTSUNNY   96  56  26 W13       29.87F
RIVERSIDE      PTSUNNY   94  62  34 W9        29.86F
PALM SPRINGS   RAIN      89  78  70 S3        29.81F HX 103
EL CENTRO NAS  MOSUNNY  109  62  21 VRB5      29.70F HX 112
IMPERIAL       MOSUNNY  109  64  23 W8        29.69F HX 113
BLYTHE         SUNNY    110  61  20 S17G25    29.72F HX 112
NEEDLES        SUNNY    111  53  14 SW13      29.75F HX 109
$$

NVZ020-UTZ003-260000-
SOUTHERN NEVADA-UTAH

CITY           SKY/WX    TMP DP  RH WIND       PRES   REMARKS
LAS VEGAS      PTSUNNY  104  46  14 SW13      29.81F HX 100
SALT LAKE CITY MOSUNNY   91  39  16 N14G23    29.96F
$$

NMZ009-TXZ055-260000-
NEW MEXICO-WEST TEXAS

CITY           SKY/WX    TMP DP  RH WIND       PRES   REMARKS
ALBUQUERQUE    MOSUNNY   96  40  14 W9        30.08F
EL PASO        MOSUNNY   98  44  15 CALM      30.00F
$$


........................KEY........................
SKY/WX - SKY CONDITION/WEATHER
TMP    - TEMPERATURE IN FAHRENHEIT
DP     - DEW POINT IN FAHRENHEIT
RH     - RELATIVE HUMIDITY IN PERCENT
WIND   - DIRECTION AND SPEED IN MILES PER HOUR (MPH)
VRB    - VARIABLE WIND DIRECTION
PRES   - MEAN SEA LEVEL PRESSURE IN INCHES OF MERCURY
         F - FALLING PRESSURE   R - RISING PRESSURE
         S - STEADY PRESSURE
VSB    - VISIBILITY IN MILES
HX     - HEAT INDEX IN FAHRENHEIT
WCI    - WIND CHILL INDEX IN FAHRENHEIT
TC     - TEMPERATURE IN CELSIUS WHICH IS ALSO KNOWN AS
         TEMPERATURE IN CENTIGRADE
AFB    - AIR FORCE BASE
         LUKE AFB IS LUKE AIR FORCE BASE
         DAVIS-MONTHAN IS DAVIS-MONTHAN AIR FORCE BASE
NAS    - NAVAL AIR STATION
         EL CENTRO NAS IS EL CENTRO NAVAL AIR STATION
N/A    - NOT AVAILABLE


USA.gov is the U.S. government's official web portal to all federal, state and local government web resources and services.